• în România
  • Lista ţărilor
  • Pe 7 zile
  • Temperatura apei
  • Hartă satelitară
  • Meteo pe hartă
  • Widget-uri
  • user-avatar
    Intrare

    Meteo pe oră la Albany

    Astăzi, 20 Noiembrie, Luni

    Timp Temperatura Precipitaţii Vânt Presiune Umiditate
    00:00 +17°C° 0 mm 2 m/s 755 mmHg 88%
    01:00 +16°C° 0 mm 2 m/s 755 mmHg 89%
    02:00 +16°C° 0 mm 1 m/s 755 mmHg 92%
    03:00 +16°C° 0 mm 2 m/s 755 mmHg 91%
    04:00 +16°C° 0 mm 2 m/s 755 mmHg 91%
    05:00 +15°C° 0 mm 2 m/s 755 mmHg 91%
    06:00 +16°C° 0 mm 2 m/s 755 mmHg 85%
    07:00 +18°C° 0 mm 3 m/s 755 mmHg 78%
    08:00 +19°C° 0 mm 3 m/s 755 mmHg 70%
    09:00 +20°C° 0 mm 4 m/s 755 mmHg 63%
    10:00 +21°C° 0 mm 4 m/s 755 mmHg 57%
    11:00 +22°C° 0 mm 4 m/s 755 mmHg 50%
    12:00 +23°C° 0 mm 5 m/s 755 mmHg 48%
    13:00 +25°C° 0 mm 5 m/s 755 mmHg 47%
    14:00 +24°C° 0 mm 6 m/s 755 mmHg 46%
    15:00 +23°C° 0 mm 6 m/s 755 mmHg 53%
    16:00 +22°C° 0 mm 6 m/s 755 mmHg 60%
    17:00 +21°C° 0 mm 6 m/s 756 mmHg 67%
    18:00 +19°C° 0 mm 6 m/s 756 mmHg 73%
    19:00 +17°C° 0 mm 5 m/s 756 mmHg 79%
    20:00 +16°C° 0 mm 5 m/s 757 mmHg 84%
    21:00 +15°C° 0 mm 5 m/s 757 mmHg 84%
    22:00 +15°C° 0 mm 4 m/s 757 mmHg 84%
    23:00 +14°C° 0 mm 4 m/s 758 mmHg 84%

    Mâine, 21 Noiembrie, Marţi

    Timp Temperatura Precipitaţii Vânt Presiune Umiditate
    00:00 +14°C° 0 mm 4 m/s 758 mmHg 82%
    01:00 +14°C° 0 mm 4 m/s 758 mmHg 81%
    02:00 +14°C° 0 mm 4 m/s 758 mmHg 79%
    03:00 +14°C° 0,1 mm 4 m/s 758 mmHg 78%
    04:00 +13°C° 0,1 mm 4 m/s 759 mmHg 77%
    05:00 +13°C° 0,1 mm 4 m/s 759 mmHg 76%
    06:00 +14°C° 0,1 mm 5 m/s 760 mmHg 70%
    07:00 +15°C° 0,1 mm 5 m/s 760 mmHg 65%
    08:00 +15°C° 0,1 mm 5 m/s 761 mmHg 60%
    09:00 +16°C° 0 mm 5 m/s 761 mmHg 55%
    10:00 +17°C° 0 mm 5 m/s 761 mmHg 49%
    11:00 +19°C° 0 mm 5 m/s 761 mmHg 44%
    12:00 +19°C° 0 mm 5 m/s 761 mmHg 44%
    13:00 +20°C° 0 mm 5 m/s 761 mmHg 44%
    14:00 +20°C° 0 mm 5 m/s 761 mmHg 43%
    15:00 +19°C° 0 mm 4 m/s 761 mmHg 45%
    16:00 +19°C° 0 mm 4 m/s 761 mmHg 47%
    17:00 +18°C° 0 mm 4 m/s 761 mmHg 49%
    18:00 +17°C° 0 mm 4 m/s 762 mmHg 55%
    19:00 +14°C° 0 mm 3 m/s 762 mmHg 61%
    20:00 +13°C° 0 mm 3 m/s 763 mmHg 66%
    21:00 +12°C° 0 mm 3 m/s 763 mmHg 69%
    22:00 +12°C° 0 mm 3 m/s 763 mmHg 71%
    23:00 +12°C° 0 mm 3 m/s 763 mmHg 73%

    Poimâine, 22 Noiembrie, Miercuri

    Timp Temperatura Precipitaţii Vânt Presiune Umiditate
    00:00 +13°C° 0 mm 2 m/s 763 mmHg 74%
    01:00 +12°C° 0 mm 2 m/s 763 mmHg 76%
    02:00 +12°C° 0 mm 2 m/s 763 mmHg 78%
    03:00 +12°C° 0 mm 2 m/s 763 mmHg 79%
    04:00 +11°C° 0 mm 1 m/s 763 mmHg 80%
    05:00 +11°C° 0 mm 1 m/s 763 mmHg 81%
    06:00 +13°C° 0 mm 2 m/s 763 mmHg 72%
    07:00 +15°C° 0 mm 2 m/s 763 mmHg 63%
    08:00 +17°C° 0 mm 2 m/s 764 mmHg 55%
    09:00 +19°C° 0 mm 3 m/s 763 mmHg 51%
    10:00 +20°C° 0 mm 3 m/s 763 mmHg 47%
    11:00 +21°C° 0 mm 3 m/s 763 mmHg 43%
    12:00 +21°C° 0 mm 4 m/s 763 mmHg 44%
    13:00 +21°C° 0 mm 4 m/s 762 mmHg 45%
    14:00 +21°C° 0 mm 5 m/s 762 mmHg 46%
    15:00 +21°C° 0 mm 5 m/s 762 mmHg 49%
    16:00 +20°C° 0 mm 5 m/s 762 mmHg 52%
    17:00 +19°C° 0 mm 5 m/s 761 mmHg 56%
    18:00 +16°C° 0 mm 5 m/s 762 mmHg 61%
    19:00 +15°C° 0 mm 5 m/s 762 mmHg 66%
    20:00 +14°C° 0 mm 4 m/s 762 mmHg 71%
    21:00 +13°C° 0 mm 4 m/s 763 mmHg 74%
    22:00 +13°C° 0 mm 4 m/s 763 mmHg 76%
    23:00 +12°C° 0 mm 4 m/s 763 mmHg 79%

    23 Noiembrie, Joi

    Timp Temperatura Precipitaţii Vânt Presiune Umiditate
    00:00 +12°C° 0 mm 4 m/s 763 mmHg 80%
    01:00 +12°C° 0 mm 3 m/s 762 mmHg 82%
    02:00 +11°C° 0 mm 3 m/s 762 mmHg 83%
    03:00 +11°C° 0 mm 3 m/s 762 mmHg 84%
    04:00 +11°C° 0 mm 3 m/s 762 mmHg 85%
    05:00 +11°C° 0 mm 3 m/s 762 mmHg 86%
    06:00 +13°C° 0 mm 3 m/s 762 mmHg 77%
    07:00 +15°C° 0 mm 4 m/s 762 mmHg 68%
    08:00 +18°C° 0 mm 4 m/s 763 mmHg 59%
    09:00 +19°C° 0 mm 4 m/s 762 mmHg 54%
    10:00 +21°C° 0 mm 4 m/s 762 mmHg 49%
    11:00 +22°C° 0 mm 5 m/s 762 mmHg 43%
    12:00 +23°C° 0 mm 5 m/s 761 mmHg 44%
    13:00 +23°C° 0 mm 5 m/s 761 mmHg 44%
    14:00 +23°C° 0 mm 6 m/s 760 mmHg 45%
    15:00 +22°C° 0 mm 6 m/s 760 mmHg 49%
    16:00 +21°C° 0 mm 6 m/s 759 mmHg 53%
    17:00 +20°C° 0 mm 6 m/s 759 mmHg 57%
    18:00 +19°C° 0 mm 6 m/s 759 mmHg 63%
    19:00 +16°C° 0 mm 6 m/s 760 mmHg 68%
    20:00 +15°C° 0 mm 6 m/s 760 mmHg 74%
    21:00 +14°C° 0 mm 5 m/s 760 mmHg 77%
    22:00 +14°C° 0 mm 5 m/s 760 mmHg 80%
    23:00 +13°C° 0 mm 5 m/s 760 mmHg 84%

    24 Noiembrie, Vineri

    Timp Temperatura Precipitaţii Vânt Presiune Umiditate
    00:00 +13°C° 0 mm 5 m/s 759 mmHg 85%
    01:00 +13°C° 0 mm 4 m/s 759 mmHg 87%
    02:00 +12°C° 0 mm 4 m/s 758 mmHg 88%
    03:00 +12°C° 0 mm 4 m/s 758 mmHg 88%
    04:00 +12°C° 0 mm 4 m/s 758 mmHg 89%
    05:00 +12°C° 0 mm 4 m/s 758 mmHg 89%
    06:00 +14°C° 0 mm 4 m/s 758 mmHg 77%
    07:00 +17°C° 0 mm 4 m/s 758 mmHg 66%
    08:00 +20°C° 0 mm 4 m/s 758 mmHg 54%
    09:00 +22°C° 0 mm 4 m/s 758 mmHg 49%
    10:00 +25°C° 0 mm 4 m/s 757 mmHg 43%
    11:00 +27°C° 0 mm 4 m/s 757 mmHg 37%
    12:00 +27°C° 0 mm 4 m/s 756 mmHg 40%
    13:00 +27°C° 0 mm 5 m/s 756 mmHg 44%
    14:00 +26°C° 0 mm 5 m/s 755 mmHg 47%
    15:00 +25°C° 0 mm 5 m/s 755 mmHg 52%
    16:00 +23°C° 0 mm 5 m/s 755 mmHg 56%
    17:00 +22°C° 0 mm 5 m/s 755 mmHg 60%
    18:00 +21°C° 0 mm 5 m/s 756 mmHg 68%
    19:00 +19°C° 0 mm 4 m/s 756 mmHg 76%
    20:00 +17°C° 0 mm 4 m/s 757 mmHg 84%
    21:00 +16°C° 0 mm 3 m/s 757 mmHg 86%
    22:00 +16°C° 0 mm 3 m/s 757 mmHg 89%
    23:00 +16°C° 0 mm 3 m/s 757 mmHg 91%

    25 Noiembrie, Sâmbătă

    Timp Temperatura Precipitaţii Vânt Presiune Umiditate
    00:00 +14°C° 0 mm 3 m/s 756 mmHg 91%
    01:00 +14°C° 0 mm 3 m/s 756 mmHg 91%
    02:00 +14°C° 0 mm 3 m/s 756 mmHg 91%
    03:00 +14°C° 0 mm 3 m/s 756 mmHg 90%
    04:00 +14°C° 0 mm 3 m/s 756 mmHg 90%
    05:00 +14°C° 0 mm 3 m/s 756 mmHg 90%
    06:00 +17°C° 0 mm 4 m/s 757 mmHg 82%
    07:00 +18°C° 0 mm 4 m/s 757 mmHg 75%
    08:00 +20°C° 0 mm 5 m/s 757 mmHg 67%
    09:00 +21°C° 0 mm 5 m/s 757 mmHg 62%
    10:00 +22°C° 0 mm 5 m/s 757 mmHg 57%
    11:00 +23°C° 0 mm 5 m/s 757 mmHg 52%
    12:00 +23°C° 0 mm 5 m/s 756 mmHg 51%
    13:00 +23°C° 0 mm 5 m/s 756 mmHg 51%
    14:00 +25°C° 0 mm 5 m/s 756 mmHg 50%
    15:00 +23°C° 0 mm 5 m/s 756 mmHg 54%
    16:00 +22°C° 0 mm 5 m/s 756 mmHg 58%
    17:00 +21°C° 0 mm 5 m/s 756 mmHg 62%
    18:00 +19°C° 0 mm 5 m/s 757 mmHg 68%
    19:00 +17°C° 0 mm 5 m/s 757 mmHg 75%
    20:00 +15°C° 0 mm 5 m/s 757 mmHg 82%
    21:00 +15°C° 0 mm 5 m/s 757 mmHg 83%
    22:00 +15°C° 0 mm 5 m/s 757 mmHg 84%
    23:00 +15°C° 0 mm 5 m/s 757 mmHg 85%
    Arată mai mult